Location: Katzenstein
(51.7484°N, 10.2155°E)
Time: 07:12:42
(UTC+00:00)

NOSS 3-4 (A) - Pass Details

Date: 17 February 2020
Orbit: 900 x 1313 km, 63.4° (Epoch: 29 March)

Event Time Altitude Azimuth Distance (km) Brightness Sun altitude
Exits shadow 05:25:37 - 313° (NW) 3,188 5.7 -10.7°
Reaches altitude 10° 05:26:40 10° 316° (NW) 2,828 5.5 -10.5°
Maximum altitude 05:33:13 52° 32° (NNE) 1,350 4.4 -9.5°
Drops below altitude 10° 05:40:26 10° 108° (ESE) 3,115 7.8 -8.4°
Sets 05:43:24 0° 114° (ESE) 4,134 8.7 -8.0°
